Theta_e
323 325 327 329 341 343 345 351 353 353 349 354 348 356 346 341 341 341 338 339 339 339 338 340 342 343 344 348 349 350 350 348 350 351 352 355 356 353 352 350 348 347 349 350
322 324 325 327 340 344 344 348 349 346 348 350 350 354 350 347 341 341 340 341 341 341 339 339 341 343 344 347 348 350 351 350 352 353 353 355 354 351 351 352 347 349 348 349
319 322 324 327 341 345 345 341 343 347 347 346 350 358 359 355 347 342 342 343 343 342 341 339 343 343 346 347 346 348 350 351 352 354 352 353 354 353 353 352 352 352 352 352
317 319 323 324 332 340 343 343 342 345 348 352 348 359 355 351 350 347 345 344 343 343 342 341 344 344 345 346 347 348 350 351 353 352 351 354 356 351 349 347 349 353 356 354
319 322 321 322 323 335 340 340 338 344 346 347 346 359 355 348 350 344 344 346 343 343 344 343 344 345 345 345 346 349 351 352 352 351 350 354 354 352 353 354 345 356 358 357
319 320 321 320 322 324 333 340 339 339 342 339 339 348 348 353 351 347 343 347 344 344 345 344 344 347 346 346 346 347 350 352 352 349 350 355 354 350 352 356 354 356 358 357
318 319 320 323 323 322 325 322 325 330 330 333 333 345 339 347 347 345 347 347 345 344 344 345 345 346 349 348 348 348 350 352 350 349 350 353 356 353 355 355 352 356 357 354
317 319 322 323 322 322 323 320 323 332 331 330 339 338 337 342 342 341 340 343 345 345 344 345 345 345 349 350 350 350 350 352 352 352 352 352 357 355 355 356 357 357 356 355
316 318 320 321 322 321 320 320 318 321 323 320 328 340 336 340 342 340 341 340 345 345 345 344 343 346 347 351 351 352 351 352 353 354 353 353 353 357 357 357 355 355 355 355
316 317 318 319 323 321 320 318 319 314 323 324 323 338 337 340 341 340 340 341 339 340 343 344 342 345 346 351 352 353 353 352 352 355 354 355 355 354 355 358 357 356 353 354
313 315 318 322 319 318 319 318 315 313 316 319 322 333 330 334 339 341 338 338 343 346 345 346 344 346 347 350 352 355 355 355 356 356 355 358 358 358 356 356 355 357 358 355
315 312 315 318 319 318 317 318 314 315 317 318 319 324 329 333 338 338 337 338 344 347 343 348 346 345 346 348 353 347 357 356 356 356 356 357 359 359 360 357 356 359 358 357
319 316 317 317 317 319 322 319 315 312 312 316 319 320 328 330 334 336 337 339 341 345 339 342 343 344 344 348 354 347 347 359 357 357 358 360 360 360 360 360 357 355 357 358
325 315 316 317 318 320 324 322 320 315 315 316 318 320 330 331 334 336 339 344 344 345 340 340 339 336 344 349 357 341 342 360 358 359 362 362 361 360 361 353 355 357 357 359
318 320 319 319 320 323 323 322 322 318 317 319 320 327 333 329 339 339 339 344 343 342 339 332 334 334 343 348 356 357 359 360 357 361 362 363 362 360 361 361 361 362 359 357
320 321 323 321 322 324 326 324 321 320 320 320 320 324 328 337 343 343 340 341 342 340 338 335 336 341 348 351 354 357 359 359 360 362 361 362 362 361 356 352 357 356 356 360
329 319 319 322 323 327 325 325 325 323 321 321 324 326 338 340 348 348 347 340 340 340 340 338 338 351 352 354 358 359 359 360 360 356 354 351 350 348 348 354 357 358 357 361
334 328 321 323 324 327 324 323 324 325 331 329 328 334 339 348 350 353 350 353 355 356 354 350 356 359 359 360 359 360 360 359 357 354 353 353 355 356 358 359 362 363 361 362
326 325 329 330 324 325 327 327 333 335 338 336 334 340 348 346 346 346 350 350 349 349 348 357 361 362 360 360 360 359 357 357 356 357 356 357 359 360 362 362 363 360 355 351
326 322 328 328 329 328 325 333 337 333 338 337 338 337 345 343 351 346 344 356 354 352 351 349 361 361 361 361 360 360 359 357 357 358 359 360 362 363 363 358 350 348 344 345
333 335 334 329 331 329 337 337 336 333 330 339 337 336 335 338 342 341 345 347 352 350 350 352 360 363 364 363 361 360 361 361 361 365 365 365 363 355 349 347 345 346 345 347
333 334 339 335 338 335 338 335 335 330 334 339 338 338 340 338 340 346 347 340 346 348 348 348 348 360 364 363 360 363 365 367 365 362 354 349 347 347 347 349 350 345 348 350
337 334 337 336 339 335 337 334 333 331 331 336 337 338 336 337 339 341 340 340 339 339 341 347 345 349 362 363 362 365 364 361 358 353 348 346 345 348 349 347 346 349 352 349
341 336 338 338 341 340 339 337 337 336 336 336 336 337 334 336 337 339 338 336 337 336 344 343 344 348 358 362 362 356 357 358 355 348 347 348 347 348 348 349 351 351 339 338
340 338 339 340 338 336 337 336 339 340 337 336 337 333 334 332 332 339 338 336 338 338 339 342 342 352 355 355 354 354 359 355 351 349 349 350 351 349 348 347 339 336 334 334
338 337 337 339 335 336 335 338 342 339 339 338 339 340 336 332 332 335 339 340 340 342 343 344 349 360 360 361 360 359 355 351 355 352 353 350 344 342 341 338 333 332 331 330
Wind_Speed
3 3 7 11 9 6 8 11 13 15 10 5 4 6 12 10 12 11 9 9 11 9 11 28 32 33 34 34 35 32 28 24 24 21 17 13 9 12 12 13 10 7 7 9
5 6 12 4 13 14 12 10 6 6 6 7 5 5 10 6 12 14 13 11 12 7 11 16 26 30 35 38 34 33 34 29 26 23 22 15 11 14 16 14 13 10 8 8
6 12 5 6 12 11 5 6 3 6 7 8 8 3 6 5 4 9 10 11 11 12 16 10 20 28 31 35 33 31 34 32 27 23 20 11 12 14 16 17 13 13 12 10
6 11 9 5 8 8 6 7 8 6 7 4 6 5 6 3 7 10 12 14 14 12 16 15 17 25 31 37 37 31 31 34 30 24 19 16 14 16 15 17 15 12 12 10
9 4 5 5 12 13 13 14 11 7 14 4 6 4 7 5 11 10 15 15 17 16 20 17 19 30 34 34 36 34 34 34 32 26 23 22 22 17 11 10 18 19 17 10
9 3 5 9 7 7 8 12 6 4 4 1 13 6 5 10 25 20 19 15 20 17 19 19 27 31 30 30 33 37 35 37 34 29 27 21 20 13 10 9 9 21 16 13
7 8 5 5 2 2 8 7 0 1 4 6 5 3 8 23 19 11 19 16 21 18 16 18 18 23 27 30 31 34 38 38 37 32 30 27 20 17 13 9 15 20 20 16
4 8 3 2 7 7 3 8 6 4 2 4 3 5 6 13 13 6 6 10 14 18 17 18 20 25 31 33 33 34 38 36 37 35 31 30 21 20 15 11 17 21 20 19
5 8 5 3 3 8 5 3 7 6 2 3 4 6 9 5 8 7 8 11 16 16 18 17 19 28 27 34 36 39 39 38 38 37 32 28 28 23 16 15 14 15 11 13
7 3 5 8 0 3 8 4 1 4 2 4 5 4 5 5 9 8 10 11 7 6 2 11 12 25 28 36 39 37 41 43 42 37 33 31 28 25 24 16 15 14 12 12
7 4 11 2 5 11 1 2 4 6 6 5 3 6 9 11 11 14 10 8 15 11 7 4 3 20 33 34 33 35 34 33 33 35 33 28 26 24 23 24 18 14 15 15
10 6 5 10 5 6 9 13 7 5 6 2 5 6 4 11 15 12 15 15 12 15 11 8 10 11 22 31 28 26 26 32 36 34 31 29 25 24 22 22 22 16 14 14
7 2 5 10 8 4 5 4 6 5 4 5 5 6 2 9 9 12 9 10 17 20 16 15 15 10 16 24 34 30 26 29 35 32 28 27 25 24 22 21 21 21 20 18
8 4 7 7 8 3 2 5 5 7 4 3 6 7 4 8 12 9 12 13 17 22 24 18 16 7 16 20 37 54 40 33 34 30 28 27 26 24 22 17 17 16 18 17
5 4 5 5 6 5 6 8 13 8 7 7 8 5 3 8 11 16 17 17 19 21 19 10 10 9 18 21 29 29 33 34 32 29 29 28 26 22 21 18 16 18 16 14
6 3 2 6 6 7 7 7 9 5 4 3 8 7 7 5 10 14 19 18 18 17 11 7 5 6 15 21 25 27 31 29 28 27 24 21 21 19 18 16 16 14 10 9
3 2 3 5 5 5 6 7 3 6 7 7 6 10 7 4 10 8 8 10 15 15 13 14 12 14 21 24 30 31 31 29 28 23 20 20 19 17 13 10 9 9 10 9
4 2 2 3 5 4 10 6 4 5 2 5 4 6 8 15 9 10 6 11 7 1 5 10 12 17 22 28 28 33 33 31 26 25 23 19 17 15 12 10 7 6 4 4
8 4 0 3 3 6 10 6 2 5 5 4 7 18 18 15 11 7 4 10 16 12 9 8 15 27 26 31 36 35 32 30 26 23 18 15 14 13 11 10 7 6 3 1
3 5 4 3 2 5 9 5 2 4 3 7 6 11 18 6 5 4 4 9 15 18 19 18 4 25 29 30 34 33 31 28 23 20 18 15 14 13 11 11 9 5 1 2
4 3 2 1 5 7 4 11 6 4 7 3 5 2 4 6 4 6 6 4 8 18 24 22 8 6 23 29 31 27 28 26 23 19 18 17 16 15 13 11 7 3 2 4
4 4 1 2 2 1 6 7 2 4 5 9 4 5 8 9 6 5 5 6 4 10 22 19 12 6 21 32 32 28 26 24 22 22 21 18 16 13 10 7 4 2 5 8
1 4 5 5 5 5 4 5 7 4 5 9 11 10 14 12 6 7 7 6 6 8 12 10 5 8 21 26 29 27 27 27 26 22 19 15 12 10 9 5 4 4 7 7
4 4 3 3 4 5 9 3 8 10 10 12 4 20 16 16 7 6 8 7 5 2 10 24 8 13 20 25 26 27 28 30 26 24 21 16 12 9 6 6 4 4 5 6
4 3 2 3 7 9 8 5 4 11 10 17 5 14 13 16 11 10 9 7 7 14 13 13 20 19 25 25 25 25 26 28 24 20 16 13 8 6 5 10 13 15 16 16
4 6 4 6 7 4 8 5 4 8 13 6 9 9 7 14 17 11 10 13 15 10 19 24 16 22 21 18 14 19 24 25 22 21 15 13 12 11 18 22 27 21 20 23
Wind_Direction
249 103 215 185 192 187 155 140 187 199 202 140 221 129 176 183 178 195 205 207 207 196 188 170 175 179 181 179 180 183 182 173 174 178 195 206 212 200 211 219 209 196 179 190
347 215 232 197 149 150 159 168 230 317 173 145 191 182 165 195 202 194 200 207 205 174 166 162 168 171 180 179 181 185 188 179 183 187 195 207 198 196 211 211 212 201 201 201
171 247 223 187 141 156 190 213 167 99 44 357 132 352 238 196 173 210 211 206 200 178 174 177 163 172 174 177 181 183 186 182 185 192 203 179 173 190 202 206 206 204 208 207
212 255 238 242 176 140 192 185 168 154 125 189 272 221 290 185 228 201 196 200 198 185 182 182 169 173 178 184 183 185 187 183 183 188 191 185 182 178 208 219 210 208 202 201
246 253 249 239 239 173 215 187 199 131 189 122 234 112 269 170 254 219 211 202 196 192 187 187 178 182 187 184 187 187 185 185 186 192 200 204 209 219 208 215 218 199 211 223
237 242 173 215 258 191 165 179 39 87 111 268 228 154 247 201 222 210 208 190 193 195 191 192 189 185 185 186 186 189 190 191 192 197 202 211 216 215 200 224 201 194 204 216
314 281 268 210 20 19 118 79 225 159 174 214 229 153 224 222 218 211 185 185 189 194 187 195 189 187 183 183 186 189 194 197 201 204 206 212 217 216 206 208 206 198 204 213
191 310 177 224 173 185 155 136 148 196 209 265 349 238 259 223 207 115 103 153 177 188 197 193 199 186 186 184 187 189 196 202 206 207 207 209 210 217 225 205 195 205 221 231
174 264 326 287 254 132 265 158 183 126 69 69 251 290 316 116 129 137 163 159 183 186 193 198 198 201 181 185 189 192 197 202 207 209 208 207 209 211 215 211 217 217 234 247
217 286 220 291 158 265 159 176 66 13 186 241 276 269 238 179 188 210 213 178 110 76 314 212 194 199 189 188 190 193 200 201 208 209 210 209 209 214 218 218 226 237 236 236
146 128 276 207 205 192 87 283 71 123 140 173 194 259 213 200 191 202 224 154 140 143 100 217 212 218 189 185 184 190 197 203 202 206 209 210 209 211 219 224 228 239 240 235
197 163 217 233 270 236 172 200 141 126 259 208 157 272 238 183 182 189 201 126 152 159 172 184 141 211 219 178 135 218 215 201 207 206 206 209 210 213 215 219 218 223 230 228
173 240 279 330 347 11 201 200 152 121 80 226 135 260 326 112 192 209 134 161 167 171 185 228 194 203 211 180 159 122 253 208 205 202 200 204 206 211 217 219 221 226 230 239
107 124 162 200 210 204 314 281 244 137 121 192 218 269 219 178 174 218 137 159 166 173 189 205 194 187 199 192 151 167 205 203 200 196 195 200 202 207 211 217 220 229 233 241
101 187 182 215 230 221 221 224 247 176 192 155 241 300 205 210 161 162 157 159 162 176 196 180 155 184 188 176 155 172 184 193 187 191 194 202 203 208 217 222 223 224 235 250
360 267 139 310 315 354 311 297 262 222 213 202 170 223 218 305 111 142 159 167 173 194 183 192 182 181 174 168 157 164 176 178 183 188 187 181 182 198 209 220 217 224 240 249
34 35 53 277 338 4 340 266 238 221 243 186 163 219 152 78 62 56 94 175 188 197 186 184 190 185 170 163 158 163 168 173 178 171 175 179 186 194 202 200 195 215 244 263
265 73 115 252 35 355 246 286 247 227 222 289 142 177 100 119 104 76 75 117 97 94 184 162 154 148 153 149 150 157 161 169 165 168 169 172 177 184 187 188 208 217 206 242
169 127 195 139 172 288 315 318 272 118 314 336 149 117 125 136 92 31 5 99 107 92 62 21 153 140 137 144 151 158 163 162 167 170 178 178 179 180 176 177 188 162 156 285
94 128 136 94 159 235 245 282 306 301 344 347 105 133 151 149 109 229 244 132 110 91 71 45 60 133 144 153 162 159 163 169 168 168 170 180 189 175 166 153 154 153 142 335
357 7 109 159 214 273 357 298 327 127 221 248 113 39 151 151 199 151 187 233 110 101 86 65 86 201 158 159 164 161 164 162 159 161 160 166 167 156 154 155 154 161 289 307
181 135 162 83 1 263 6 350 1 300 286 129 94 114 103 125 116 124 159 209 136 94 91 75 25 230 162 166 167 157 157 151 155 156 153 153 151 155 153 162 170 291 292 311
344 184 183 152 216 248 292 224 272 348 280 309 129 132 138 135 125 151 137 115 112 44 112 73 308 302 176 166 167 156 152 152 157 158 154 159 159 158 165 192 236 285 328 340
347 335 79 30 265 272 272 157 43 32 27 346 242 143 145 136 141 130 148 191 115 190 181 179 255 258 171 171 169 161 158 163 169 167 168 169 171 180 203 226 272 320 93 94
224 348 149 289 289 313 276 100 7 17 5 29 61 159 152 140 158 140 151 176 195 177 168 179 238 205 174 177 176 175 171 172 167 167 168 166 186 168 123 99 95 94 91 101
184 184 168 220 222 191 266 305 258 50 20 28 39 256 175 161 159 146 141 176 186 179 193 206 188 130 125 133 137 157 168 169 167 170 167 153 141 128 126 112 105 86 100 98